TimeCDT,TemperatureF,Dew PointF,Humidity,Sea Level PressureIn,VisibilityMPH,Wind Direction,Wind SpeedMPH,Gust SpeedMPH,PrecipitationIn,Events,Conditions,WindDirDegrees,DateUTC
12:15 AM,73.4,55.4,53,29.69,10.0,South,15.0,24.2,N/A,,Clear,190,2013-04-30 05:15:00
12:35 AM,71.6,57.2,60,29.69,10.0,South,12.7,21.9,N/A,,Clear,190,2013-04-30 05:35:00
12:55 AM,71.6,57.2,60,29.69,10.0,South,16.1,-,N/A,,Clear,190,2013-04-30 05:55:00
1:15 AM,71.6,57.2,60,29.70,10.0,South,17.3,20.7,N/A,,Clear,190,2013-04-30 06:15:00
1:35 AM,71.6,57.2,60,29.70,10.0,South,13.8,25.3,N/A,,Clear,190,2013-04-30 06:35:00
1:55 AM,71.6,57.2,60,29.70,10.0,South,15.0,19.6,N/A,,Clear,190,2013-04-30 06:55:00
2:15 AM,71.6,57.2,60,29.70,10.0,South,17.3,23.0,N/A,,Clear,190,2013-04-30 07:15:00
2:35 AM,71.6,57.2,60,29.70,10.0,South,13.8,23.0,N/A,,Clear,190,2013-04-30 07:35:00
2:55 AM,71.6,57.2,60,29.70,10.0,SSW,15.0,21.9,N/A,,Clear,200,2013-04-30 07:55:00
3:15 AM,69.8,57.2,64,29.71,10.0,South,15.0,19.6,N/A,,Clear,190,2013-04-30 08:15:00
3:35 AM,69.8,57.2,64,29.71,10.0,South,12.7,19.6,N/A,,Clear,190,2013-04-30 08:35:00
3:55 AM,69.8,57.2,64,29.72,10.0,South,12.7,23.0,N/A,,Clear,190,2013-04-30 08:55:00
4:15 AM,69.8,57.2,64,29.72,10.0,SSW,12.7,-,N/A,,Clear,200,2013-04-30 09:15:00
4:35 AM,69.8,57.2,64,29.72,10.0,South,12.7,19.6,N/A,,Clear,190,2013-04-30 09:35:00
4:55 AM,69.8,57.2,64,29.73,10.0,SSW,11.5,-,N/A,,Clear,200,2013-04-30 09:55:00
5:15 AM,68.0,57.2,68,29.73,10.0,SSW,13.8,-,N/A,,Clear,200,2013-04-30 10:15:00
5:35 AM,68.0,57.2,68,29.73,10.0,South,12.7,18.4,N/A,,Clear,190,2013-04-30 10:35:00
5:55 AM,68.0,55.4,64,29.74,10.0,SSW,11.5,-,N/A,,Clear,200,2013-04-30 10:55:00
6:15 AM,66.2,55.4,68,29.76,10.0,SSW,11.5,-,N/A,,Clear,200,2013-04-30 11:15:00
6:35 AM,66.2,55.4,68,29.77,10.0,South,9.2,-,N/A,,Clear,190,2013-04-30 11:35:00
6:55 AM,68.0,55.4,64,29.78,10.0,SSW,8.1,-,N/A,,Clear,200,2013-04-30 11:55:00
7:15 AM,69.8,57.2,64,29.78,10.0,South,11.5,17.3,N/A,,Clear,190,2013-04-30 12:15:00
7:35 AM,69.8,57.2,64,29.78,10.0,South,9.2,-,N/A,,Clear,190,2013-04-30 12:35:00
7:55 AM,69.8,57.2,64,29.78,10.0,SSW,10.4,-,N/A,,Clear,200,2013-04-30 12:55:00
8:15 AM,69.8,57.2,64,29.78,10.0,South,9.2,-,N/A,,Clear,190,2013-04-30 13:15:00
8:35 AM,71.6,57.2,60,29.78,10.0,SSW,10.4,-,N/A,,Clear,200,2013-04-30 13:35:00
8:55 AM,71.6,57.2,60,29.78,10.0,SSW,12.7,-,N/A,,Clear,210,2013-04-30 13:55:00
9:15 AM,73.4,57.2,57,29.78,10.0,SSW,10.4,18.4,N/A,,Clear,210,2013-04-30 14:15:00
9:35 AM,75.2,57.2,53,29.79,10.0,SSW,12.7,-,N/A,,Clear,210,2013-04-30 14:35:00
9:55 AM,77.0,55.4,47,29.79,10.0,SW,19.6,24.2,N/A,,Clear,220,2013-04-30 14:55:00
10:15 AM,78.8,55.4,44,29.79,10.0,SW,18.4,-,N/A,,Clear,230,2013-04-30 15:15:00
10:35 AM,80.6,53.6,39,29.79,10.0,WSW,19.6,27.6,N/A,,Clear,240,2013-04-30 15:35:00
10:55 AM,80.6,51.8,37,29.79,10.0,SW,18.4,24.2,N/A,,Clear,220,2013-04-30 15:55:00
11:15 AM,82.4,48.2,30,29.79,10.0,SW,21.9,28.8,N/A,,Clear,230,2013-04-30 16:15:00
11:35 AM,82.4,48.2,30,29.79,10.0,SW,18.4,24.2,N/A,,Clear,230,2013-04-30 16:35:00
11:55 AM,82.4,48.2,30,29.79,10.0,SW,20.7,24.2,N/A,,Clear,220,2013-04-30 16:55:00
12:15 PM,82.4,50.0,32,29.78,10.0,SSW,19.6,26.5,N/A,,Clear,210,2013-04-30 17:15:00
12:35 PM,84.2,42.8,23,29.78,10.0,SSW,21.9,28.8,N/A,,Clear,200,2013-04-30 17:35:00
12:55 PM,84.2,44.6,25,29.78,10.0,SSW,20.7,28.8,N/A,,Clear,210,2013-04-30 17:55:00
1:15 PM,84.2,44.6,25,29.78,10.0,SSW,13.8,21.9,N/A,,Clear,210,2013-04-30 18:15:00
1:35 PM,86.0,42.8,22,29.78,10.0,SW,21.9,27.6,N/A,,Clear,220,2013-04-30 18:35:00
1:55 PM,86.0,35.6,17,29.78,10.0,SSW,21.9,27.6,N/A,,Clear,210,2013-04-30 18:55:00
2:15 PM,86.0,35.6,17,29.78,10.0,SSW,18.4,27.6,N/A,,Clear,200,2013-04-30 19:15:00
2:35 PM,86.0,35.6,17,29.78,10.0,SSW,18.4,31.1,N/A,,Clear,200,2013-04-30 19:35:00
2:55 PM,86.0,35.6,17,29.78,10.0,SW,16.1,23.0,N/A,,Clear,220,2013-04-30 19:55:00
3:15 PM,86.0,33.8,15,29.78,10.0,South,18.4,23.0,N/A,,Clear,190,2013-04-30 20:15:00
3:35 PM,86.0,35.6,17,29.78,10.0,SW,19.6,23.0,N/A,,Clear,220,2013-04-30 20:35:00
3:55 PM,86.0,39.2,19,29.78,10.0,SSW,17.3,23.0,N/A,,Clear,200,2013-04-30 20:55:00
4:15 PM,86.0,41.0,20,29.79,10.0,SSW,11.5,20.7,N/A,,Clear,200,2013-04-30 21:15:00
4:35 PM,86.0,37.4,18,29.79,10.0,South,16.1,23.0,N/A,,Clear,190,2013-04-30 21:35:00
4:55 PM,86.0,37.4,18,29.79,10.0,South,15.0,25.3,N/A,,Clear,190,2013-04-30 21:55:00
5:15 PM,84.2,37.4,19,29.80,10.0,SSW,15.0,20.7,N/A,,Clear,200,2013-04-30 22:15:00
5:35 PM,84.2,39.2,20,29.80,10.0,South,11.5,21.9,N/A,,Clear,190,2013-04-30 22:35:00
5:55 PM,84.2,37.4,19,29.80,10.0,South,16.1,20.7,N/A,,Clear,190,2013-04-30 22:55:00
6:15 PM,84.2,39.2,20,29.80,10.0,SSW,9.2,-,N/A,,Clear,200,2013-04-30 23:15:00
6:35 PM,84.2,37.4,19,29.81,10.0,South,10.4,-,N/A,,Clear,190,2013-04-30 23:35:00
6:55 PM,82.4,39.2,21,29.81,10.0,South,8.1,-,N/A,,Clear,190,2013-04-30 23:55:00
7:15 PM,82.4,37.4,20,29.81,10.0,South,9.2,-,N/A,,Clear,190,2013-05-01 00:15:00
7:35 PM,80.6,39.2,23,29.81,10.0,South,5.8,-,N/A,,Clear,190,2013-05-01 00:35:00
7:55 PM,80.6,39.2,23,29.82,10.0,South,4.6,-,N/A,,Clear,180,2013-05-01 00:55:00
8:15 PM,80.6,39.2,23,29.82,10.0,South,3.5,-,N/A,,Clear,170,2013-05-01 01:15:00
8:35 PM,80.6,42.8,26,29.83,10.0,South,3.5,-,N/A,,Clear,170,2013-05-01 01:35:00
8:55 PM,78.8,44.6,30,29.83,10.0,South,3.5,-,N/A,,Clear,170,2013-05-01 01:55:00
9:15 PM,77.0,46.4,34,29.84,10.0,Calm,Calm,-,N/A,,Clear,0,2013-05-01 02:15:00
9:35 PM,77.0,46.4,34,29.85,10.0,SSE,3.5,-,N/A,,Clear,160,2013-05-01 02:35:00
10:15 PM,71.6,51.8,50,29.86,10.0,SE,6.9,-,N/A,,Clear,130,2013-05-01 03:15:00
10:35 PM,73.4,48.2,41,29.87,10.0,SSE,6.9,-,N/A,,Clear,150,2013-05-01 03:35:00
10:55 PM,75.2,48.2,38,29.87,10.0,South,8.1,-,N/A,,Clear,170,2013-05-01 03:55:00
11:15 PM,75.2,51.8,44,29.88,10.0,SSE,8.1,-,N/A,,Clear,160,2013-05-01 04:15:00
11:35 PM,73.4,51.8,47,29.88,10.0,SSE,8.1,-,N/A,,Clear,160,2013-05-01 04:35:00
11:55 PM,73.4,51.8,47,29.89,10.0,SSE,5.8,-,N/A,,Clear,160,2013-05-01 04:55:00